logo
App data

Deadly 30

Can you survive the horror? … a retro-style survival horror game developed by the two-man indie team of Gonzossm and Iggy Zuk. Survive 30 days and nights in a zombie-infested world by recruiting companions, upgrading weaponry and fortifying your position.
Store | Hub | SteamDB | Site
Developer: Ignatus Zuk and Gonzalo Villagomez Publisher: Headup Games
Genre: Violent, Gore, Action, Indie
Languages: English
Tags: Action (66), Indie (62), Zombies (54), Survival (37), Singleplayer (27), Gore (26), 2D (26), Violent (24), Horror (20), Side Scroller (17), Retro (13), Shooter (11), Platformer (9)
Category: Single-player, Steam Achievements, Steam Trading Cards
Release date: Jan 8, 2014
Price: $1.24 75%
Score rank: 45% Userscore: 78% Old userscore: 75%
Owners: 100,000 .. 200,000
Followers: 1,600
Peak concurrent players yesterday: 5
Playtime total: 03:50 (average) 03:11 (median)

Steam Spy is still in beta, so expect major bugs.

Owners data:

Access restricted.

This feature is only available to users with special access rights. Sorry.

If you want to proceed, you need to register or log in first and then back Steam Spy on Patreon. Look for Indie or Pro pledge.

Don't forget to use the same email as on Steam Spy!

Audience in 2 weeks:

Access restricted.

This feature is only available to users with special access rights. Sorry.

If you want to proceed, you need to register or log in first and then back Steam Spy on Patreon. Look for Indie or Pro pledge.

Don't forget to use the same email as on Steam Spy!

Peak daily concurrent players:

CCU data courtesy of SteamDB. Used with permission.

Hourly concurrent players:

Daily Twitch stats:

Hourly Twitch stats:

YouTube:

The views data is based on top 50 videos uploaded last week. Actual number of views might be more than the number shown.

The displayed number of videos uploaded yesterday is limited to 50, so if there were more videos uploaded, the number will still show 50.

If the game has commonly used word as its name (like "FEAR" or "Volume") its number of Youtube views might be wrong.

Games similar to this one:

# Game Release date
Price
Score rank
(Userscore / Metascore)
Owners
Players
Playtime (Median)
1 Little Big Adventure 2 Oct 20, 2015 $1.9999% (98%)0 .. 20,0000%00:00 (00:00)
2 Militia Dec 2, 2015 $2.9999% (98%)0 .. 20,0000%00:00 (00:00)
3 Seven Kingdoms: Ancient Adversaries Mar 22, 2016 $2.39N/A (N/A)0 .. 20,0000%00:00 (00:00)
4 Dungeon Warfare Nov 4, 2015 $3.3997% (97%)20,000 .. 50,0000%00:00 (00:00)
5 Defend The Highlands Nov 6, 2015 $2.49N/A (N/A)100,000 .. 200,0001.37%01:39 (02:11)
6 Voodoo Vince: Remastered Apr 18, 2017 $14.9995% (96%/63%)0 .. 20,0000%00:00 (00:00)
7 Imperium Galactica Mar 1, 1997 $1.24N/A (N/A)0 .. 20,0000%00:00 (00:00)
8 Outcast 1.1 Dec 18, 2014 $1.7992% (95%)20,000 .. 50,0000%00:00 (00:00)
9 Darknet Jun 8, 2017 $9.8992% (95%)0 .. 20,0000%00:00 (00:00)
10 PixelJunk Shooter Nov 11, 2013 $1.3492% (95%/73%)100,000 .. 200,0000%00:00 (00:00)
11 Templar Battleforce Sep 21, 2015 $4.9992% (95%)20,000 .. 50,0000%00:00 (00:00)
12 Chicken Invaders 2 Mar 4, 2016 $1.9992% (95%)0 .. 20,0000%00:00 (00:00)
13 Hegemony Gold: Wars of Ancient Greece Mar 30, 2012 $4.9492% (95%)20,000 .. 50,0000%00:00 (00:00)
14 Majesty Gold HD Mar 23, 2001 $2.4990% (94%)100,000 .. 200,0000%00:00 (00:00)
15 Supercharged Robot VULKAISER Jun 4, 2015 $2.4990% (94%)20,000 .. 50,0000%00:00 (00:00)
16 ESCHATOS Sep 18, 2015 $8.9990% (94%)0 .. 20,0000%00:00 (00:00)
17 Stick it to The Man! Dec 13, 2013 $2.7990% (94%/83%)20,000 .. 50,0000%00:00 (00:00)
18 Kalimba Apr 22, 2015 $2.4990% (94%/81%)0 .. 20,0000%00:00 (00:00)
19 Audio Arena Jul 25, 2016 $1.04N/A (N/A)0 .. 20,0000%00:00 (00:00)
20 Flywrench Aug 24, 2015 $3.4990% (94%)0 .. 20,0000%00:00 (00:00)
21 Star Trek: Judgment Rites May 8, 2015 $9.99N/A (N/A)0 .. 20,0000%00:00 (00:00)
22 Run or Die Dec 11, 2014 $0.4990% (94%)0 .. 20,0000%00:00 (00:00)
23 Gold Rush! Classic Jul 25, 2014 $1.49N/A (N/A)200,000 .. 500,0001.45%03:20 (04:23)
24 Neon Chrome Apr 28, 2016 $4.4990% (94%/74%)0 .. 20,0000.34%00:05 (00:01)
25 Super Trench Attack! Jul 24, 2014 $0.4987% (93%)50,000 .. 100,0001.15%02:44 (01:49)
26 Adventure in the Tower of Flight Dec 23, 2015 $1.99N/A (N/A)0 .. 20,0000%00:00 (00:00)
27 Bleed Jul 3, 2013 $1.9987% (93%)100,000 .. 200,0000.86%04:03 (01:21)
28 Kick Ass Commandos Nov 17, 2016 $4.9987% (93%)0 .. 20,0000%00:00 (00:00)
29 Pharaoh Rebirth+ Mar 17, 2016 $2.9987% (93%)0 .. 20,0000%00:00 (00:00)
30 Handsome Mr. Frog Aug 8, 2016 $0.4987% (93%)0 .. 20,0000%00:00 (00:00)
31 Eufloria HD Oct 14, 2014 $14.9987% (93%)200,000 .. 500,0000%00:00 (00:00)
32 Tallowmere Mar 3, 2015 $2.3987% (93%)20,000 .. 50,0004.17%02:23 (01:32)
33 Major Mayhem Feb 24, 2014 $4.99N/A (N/A)20,000 .. 50,0000%00:00 (00:00)
34 Khet 2.0 Oct 1, 2014 $2.4983% (92%)50,000 .. 100,0000%00:00 (00:00)
35 Death Ray Manta SE Sep 17, 2015 $0.7983% (92%)20,000 .. 50,0000%00:00 (00:00)
36 Super Cyborg Jul 8, 2015 $1.9983% (92%)20,000 .. 50,0001.04%04:08 (01:22)
37 Shmups Skill Test シューティング技能検定 Jun 9, 2016 $3.99N/A (N/A)0 .. 20,0000%00:00 (00:00)
38 Below Kryll Sep 7, 2015 $0.9983% (92%)0 .. 20,0000%00:00 (00:00)
39 Knightmare Tower Jun 16, 2014 $0.9983% (92%)0 .. 20,0000%00:00 (00:00)
40 Battle Academy 2: Eastern Front Sep 12, 2014 $9.9983% (92%/78%)0 .. 20,0000%00:00 (00:00)
41 Ys VI: The Ark of Napishtim Apr 28, 2015 $5.9983% (92%)50,000 .. 100,0000%00:00 (00:00)
42 Anarcute Jul 12, 2016 $5.9983% (92%/79%)0 .. 20,0004.76%02:48 (00:56)
43 The Juicer Sep 11, 2015 $0.4983% (92%)20,000 .. 50,0000.74%03:54 (01:18)
44 RIVE: Wreck, Hack, Die, Retry! Sep 13, 2016 $3.7479% (91%)200,000 .. 500,0000.28%00:05 (00:01)
45 Valley Aug 24, 2016 $3.9979% (91%)100,000 .. 200,0000%00:00 (00:00)
46 Spider: Rite of the Shrouded Moon Aug 6, 2015 $2.99N/A (N/A)20,000 .. 50,0000%00:00 (00:00)
47 Momodora III Jul 1, 2014 $1.9979% (91%)50,000 .. 100,0001.45%01:05 (00:21)
48 Clash of Puppets Dec 16, 2014 $2.99N/A (N/A)0 .. 20,0000%00:00 (00:00)
49 Ittle Dew Jul 23, 2013 $4.9979% (91%/67%)100,000 .. 200,0000%00:00 (00:00)
50 Angry Video Game Nerd II: ASSimilation Mar 29, 2016 $9.9979% (91%)20,000 .. 50,0000%00:00 (00:00)
51 Earth Defense Force: Insect Armageddon Dec 14, 2011 $9.9979% (91%/69%)50,000 .. 100,0000%00:00 (00:00)
52 Mad Bullets Jun 10, 2016 $1.9979% (91%)0 .. 20,0000%00:00 (00:00)
53 Skulls of the Shogun Jul 29, 2013 $3.9979% (91%/72%)100,000 .. 200,0000.4%00:51 (00:17)
54 Armed with Wings: Rearmed Jun 1, 2017 $6.9979% (91%)20,000 .. 50,0000%00:00 (00:00)
55 Miracle Fly Oct 26, 2015 $2.39N/A (N/A)20,000 .. 50,0000%00:00 (00:00)
56 Explosionade Sep 23, 2015 $3.99N/A (N/A)0 .. 20,0001.67%00:46 (00:15)
57 Warrior Kings: Battles May 6, 2014 $1.4979% (91%/64%)20,000 .. 50,0000%00:00 (00:00)
58 Demons with Shotguns Apr 25, 2016 $0.99N/A (N/A)0 .. 20,0000%00:00 (00:00)
59 Blue Estate The Game Apr 8, 2015 $3.2479% (91%/59%)50,000 .. 100,0000%00:00 (00:00)
60 Dandy: Or a Brief Glimpse Into the Life of the Candy Alchemist Aug 4, 2015 $9.99N/A (N/A)0 .. 20,0000%00:00 (00:00)
61 Wars and Warriors: Joan of Arc Sep 3, 2015 $1.7479% (91%/60%)0 .. 20,0000%00:00 (00:00)
62 Superstatic Sep 15, 2015 $0.99N/A (N/A)0 .. 20,0000%00:00 (00:00)
63 Death's Hangover Jan 20, 2017 $0.4975% (90%)20,000 .. 50,0004.82%02:07 (00:46)
64 Swords and Soldiers HD Dec 2, 2010 $1.9975% (90%)50,000 .. 100,0001.38%00:12 (00:06)
65 Ace of Seafood Apr 8, 2016 $5.9975% (90%)0 .. 20,0000%00:00 (00:00)
66 Headlander Jul 25, 2016 $5.9975% (90%/74%)20,000 .. 50,0000%00:00 (00:00)
67 Planet of the Eyes Aug 24, 2015 $2.4975% (90%/66%)50,000 .. 100,0000%00:00 (00:00)
68 Silent Storm Gold Edition Oct 2, 2013 $2.4975% (90%/83%)200,000 .. 500,0000%00:00 (00:00)
69 Wild Guns Reloaded Jul 11, 2017 $9.9975% (90%)0 .. 20,0000%00:00 (00:00)
70 Kohan: Ahriman's Gift Aug 24, 2011 $9.99N/A (N/A/79%)0 .. 20,0000%00:00 (00:00)
71 Weird Hero Nov 18, 2016 $0.7475% (90%)0 .. 20,0000%00:00 (00:00)
72 Kohan II: Kings of War Sep 21, 2004 $9.9975% (90%/81%)20,000 .. 50,0000%00:00 (00:00)
73 Near Death Aug 2, 2016 $3.7475% (90%/70%)0 .. 20,0000%00:00 (00:00)
74 Apocalypse: Party's Over May 30, 2016 $2.4975% (90%)0 .. 20,0000%00:00 (00:00)
75 Amaranthine Apr 6, 2016 $0.89N/A (N/A)0 .. 20,0004.76%02:45 (01:30)
76 Warhammer 40,000: Dawn of War – Winter Assault Jan 1, 2006 $3.2472% (89%)500,000 .. 1,000,0000.45%02:47 (01:51)
77 MoonBase Commander Feb 6, 2014 $1.4972% (89%/77%)20,000 .. 50,0000%00:00 (00:00)
78 Spectromancer Oct 15, 2008 $9.9972% (89%)20,000 .. 50,0000%00:00 (00:00)
79 CastleStorm Jul 29, 2013 $2.4972% (89%/73%)100,000 .. 200,0000%00:00 (00:00)
80 Fort Meow Jun 24, 2015 $1.5972% (89%)0 .. 20,0000%00:00 (00:00)
81 Codename: Panzers, Phase Two Feb 18, 2016 $3.7472% (89%/80%)0 .. 20,0000%00:00 (00:00)
82 Lethe - Episode One Aug 1, 2016 $2.9972% (89%)0 .. 20,0005.26%01:41 (01:36)
83 Reverse Crawl Sep 24, 2015 $2.0372% (89%)20,000 .. 50,0000%00:00 (00:00)
84 Zombo Buster Rising Oct 2, 2016 $0.9972% (89%)0 .. 20,0001.85%02:38 (00:52)
85 Sneaky Sneaky Nov 12, 2014 $4.9972% (89%/63%)0 .. 20,0000%00:00 (00:00)
86 The Fall May 30, 2014 $1.9969% (88%/76%)200,000 .. 500,0000.75%00:36 (00:24)
87 Avoid - Sensory Overload Apr 8, 2014 $0.9969% (88%)0 .. 20,0000%00:00 (00:00)
88 Greed Corp Dec 10, 2010 $9.9969% (88%/76%)200,000 .. 500,0000%00:00 (00:00)
89 Lethal VR Nov 8, 2016 $3.7469% (88%/66%)0 .. 20,0000%00:00 (00:00)
90 Atom Zombie Smasher Mar 14, 2011 $7.9969% (88%/75%)200,000 .. 500,0000%00:00 (00:00)
91 Earn to Die 2 May 5, 2016 $4.9969% (88%)0 .. 20,0000%00:00 (00:00)
92 The Way May 20, 2016 $3.7469% (88%/67%)20,000 .. 50,0002.63%02:42 (02:01)
93 Viking Squad Oct 4, 2016 $7.4969% (88%)0 .. 20,0000%00:00 (00:00)
94 Super Furball Apr 21, 2015 $0.91N/A (N/A)0 .. 20,0000%00:00 (00:00)
95 Anodyne Mar 22, 2013 $3.3969% (88%/75%)100,000 .. 200,0000%00:00 (00:00)
96 Battlepillars Gold Edition Apr 28, 2014 $2.4969% (88%)20,000 .. 50,0000%00:00 (00:00)
97 Tcheco in the Castle of Lucio Jun 22, 2015 $0.4969% (88%)20,000 .. 50,0000.42%00:02 (00:00)
98 Shadow Blade: Reload Aug 10, 2015 $4.4967% (87%/70%)20,000 .. 50,0000.98%03:43 (01:14)
99 TRON 2.0 Oct 10, 2014 $3.4967% (87%/84%)50,000 .. 100,0000%00:00 (00:00)
100 Syrian Warfare Feb 21, 2017 $4.9467% (87%)20,000 .. 50,0008%01:41 (01:07)
101 Supreme Commander Feb 20, 2007 $3.2467% (87%/86%)500,000 .. 1,000,0000.2%00:11 (00:03)
102 Bullet Sorrow VR Apr 17, 2017 $19.9967% (87%)0 .. 20,0000%00:00 (00:00)
103 Spooky Cats Jun 4, 2015 $0.7467% (87%)20,000 .. 50,0000%00:00 (00:00)
104 Mr. Shifty Apr 13, 2017 $4.9467% (87%)50,000 .. 100,0001.88%02:29 (02:32)
105 Blacksea Odyssey Jun 1, 2016 $4.9967% (87%/74%)0 .. 20,0000%00:00 (00:00)
106 Civilization IV: Warlords Apr 6, 2007 $4.9967% (87%/84%)1,000,000 .. 2,000,0000%00:00 (00:00)
107 Neon Shadow Aug 25, 2016 $4.99N/A (N/A)0 .. 20,0000%00:00 (00:00)
108 The Tiny Tale 2 Jan 30, 2015 $1.74N/A (N/A)0 .. 20,0000%00:00 (00:00)
109 Sang-Froid - Tales of Werewolves Apr 5, 2013 Free67% (87%/79%)200,000 .. 500,0000%00:00 (00:00)
110 Arcane Sorcery Sep 15, 2015 $4.99N/A (N/A)0 .. 20,0000%00:00 (00:00)
111 Magnifico Dec 2, 2014 $1.2464% (86%)50,000 .. 100,0001.72%01:27 (00:29)
112 VelocityUltra Dec 12, 2013 $3.4964% (86%)50,000 .. 100,0000%00:00 (00:00)
113 The Haunted: Hells Reach Oct 24, 2011 $1.7964% (86%/51%)50,000 .. 100,0000%00:00 (00:00)
114 Super Chibi Knight Jun 24, 2015 $2.4964% (86%)20,000 .. 50,0002.27%04:09 (01:23)
115 Meltdown Jun 5, 2014 $2.4464% (86%)50,000 .. 100,0000%00:00 (00:00)
116 Ghost Master Aug 23, 2003 $0.7464% (86%/81%)100,000 .. 200,0000%00:00 (00:00)
117 Executive Assault Jul 17, 2015 $9.7464% (86%)20,000 .. 50,0000%00:00 (00:00)
118 Rush for Berlin Gold Oct 29, 2009 $2.4964% (86%/76%)20,000 .. 50,0000%00:00 (00:00)
119 Time Rifters Oct 21, 2014 $3.9964% (86%)0 .. 20,0000%00:00 (00:00)
120 Star Ruler Sep 20, 2010 $2.4964% (86%)100,000 .. 200,0000%00:00 (00:00)
121 Concealed Intent Aug 2, 2016 $2.99N/A (N/A)0 .. 20,0000%00:00 (00:00)
122 Age of Wonders Shadow Magic Oct 2010 $2.4964% (86%/82%)100,000 .. 200,0000%00:00 (00:00)
123 CRYPTARK Jun 20, 2017 $3.7461% (85%/80%)50,000 .. 100,0001.92%01:35 (00:31)
124 Ballistic Tanks Sep 20, 2016 $0.9961% (85%)0 .. 20,0000%00:00 (00:00)
125 Interloper May 21, 2015 Free61% (85%/77%)50,000 .. 100,0000%00:00 (00:00)
126 ENSLAVED: Odyssey to the West Premium Edition Oct 24, 2013 $4.9961% (85%/70%)200,000 .. 500,0000.24%00:13 (00:04)
127 NOBUNAGA'S AMBITION: Souzou (Traditional Chinese version) Aug 2014 $17.1961% (85%)20,000 .. 50,0000%00:00 (00:00)
128 Slash or Die Jun 3, 2016 $1.1961% (85%)20,000 .. 50,0000%00:00 (00:00)
129 ShootMania Storm Apr 10, 2013 $6.7961% (85%/76%)50,000 .. 100,0000%00:00 (00:00)
130 Steel Rain Dec 3, 2015 $2.79N/A (N/A)0 .. 20,0000%00:00 (00:00)
131 Act of War: Direct Action Mar 14, 2005 $1.1958% (84%/82%)20,000 .. 50,0000%00:00 (00:00)
132 Western 1849 Reloaded Feb 10, 2017 $0.9958% (84%)0 .. 20,0000%00:00 (00:00)
133 Fat Chicken Dec 4, 2014 $9.99N/A (N/A)0 .. 20,0000%00:00 (00:00)
134 Last Knight: Rogue Rider Edition Oct 3, 2014 $1.5958% (84%)20,000 .. 50,0001.35%02:01 (00:40)
135 Dustoff Heli Rescue Mar 6, 2015 $0.5158% (84%)20,000 .. 50,0000%00:00 (00:00)
136 Child Of Ault Jan 24, 2017 $9.99N/A (N/A)0 .. 20,0000%00:00 (00:00)
137 Foresight Nov 28, 2014 $2.99N/A (N/A)0 .. 20,0001.16%00:15 (00:05)
138 The Men of Yoshiwara: Kikuya Oct 14, 2015 $9.8958% (84%)0 .. 20,0000%00:00 (00:00)
139 Conflict Desert Storm Sep 13, 2002 $0.9758% (84%/56%)20,000 .. 50,0000%00:00 (00:00)
140 Gurgamoth Feb 16, 2016 $4.99N/A (N/A)50,000 .. 100,0000.76%02:35 (00:51)
141 Battle Group 2 Jun 13, 2014 $0.7958% (84%)50,000 .. 100,0000.96%00:01 (00:00)
142 Rooks Keep Dec 5, 2014 $2.71N/A (N/A)20,000 .. 50,0000%00:00 (00:00)
143 Legend (1994) Nov 10, 2015 $2.49N/A (N/A)0 .. 20,0000%00:00 (00:00)
144 Yomi May 8, 2015 $7.4958% (84%)0 .. 20,0000%00:00 (00:00)
145 Eador: Genesis Oct 14, 2013 $1.1958% (84%)50,000 .. 100,0000%00:00 (00:00)
146 Rack N Ruin Sep 1, 2015 $9.99N/A (N/A)0 .. 20,0000%00:00 (00:00)
147 Disciples Sacred Lands Gold Oct 7, 2014 $0.7956% (83%)50,000 .. 100,0003.77%00:30 (00:19)
148 Sudden Strike 2 Gold Aug 30, 2002 $2.9956% (83%)20,000 .. 50,0000%00:00 (00:00)
149 NOBUNAGA'S AMBITION: Sphere of Influence Sep 1, 2015 $23.9956% (83%/70%)20,000 .. 50,0000%00:00 (00:00)
150 Advanced Tactics Gold Aug 15, 2014 $9.8956% (83%)0 .. 20,0000%00:00 (00:00)
151 Ace of Protectors Jun 27, 2016 $1.19N/A (N/A)0 .. 20,0001.96%01:23 (00:27)
152 Delta Force 2 Oct 31, 1999 $1.2456% (83%)50,000 .. 100,0004.17%01:57 (00:39)
153 GIBZ Apr 7, 2017 $2.7956% (83%)0 .. 20,0000%00:00 (00:00)
154 Orbital Gear Aug 7, 2014 $0.9956% (83%/59%)200,000 .. 500,0000.32%02:03 (00:41)
155 Galaxy Admirals Jan 17, 2017 $0.9956% (83%)50,000 .. 100,0000%00:00 (00:00)
156 TY the Tasmanian Tiger 4 Sep 17, 2015 $1.4956% (83%)0 .. 20,0000%00:00 (00:00)
157 Crush Your Enemies Jul 13, 2016 $0.9956% (83%/63%)20,000 .. 50,0003.13%01:30 (00:30)
158 Bulletstorm: Full Clip Edition Apr 7, 2017 $9.9956% (83%/76%)20,000 .. 50,0002.94%00:18 (00:06)
159 She Wants Me Dead May 13, 2016 $7.99N/A (N/A)0 .. 20,0000%00:00 (00:00)
160 Fleet Command May 15, 1999 $1.9953% (82%)20,000 .. 50,0000%00:00 (00:00)
161 After The End: The Harvest Jun 2, 2017 $1.9953% (82%)20,000 .. 50,0000%00:00 (00:00)
162 Shadow Ops: Red Mercury Jul 2, 2014 $1.7453% (82%/61%)20,000 .. 50,0000%00:00 (00:00)
163 Defense Zone Jul 14, 2014 $2.39N/A (N/A)0 .. 20,0000%00:00 (00:00)
164 Square Brawl Oct 22, 2015 $4.9953% (82%)0 .. 20,0000%00:00 (00:00)
165 htoL#NiQ: The Firefly Diary / htoL#NiQ-ホタルノニッキ- May 18, 2016 $4.9953% (82%)0 .. 20,0000%00:00 (00:00)
166 PixelJunk Shooter Ultimate Oct 21, 2015 $1.4953% (82%)20,000 .. 50,0000%00:00 (00:00)
167 Junk Jack Nov 30, 2016 $11.2451% (81%)0 .. 20,0000%00:00 (00:00)
168 Toadled Sep 22, 2016 $0.4951% (81%)50,000 .. 100,0000%00:00 (00:00)
169 Blade Arcus from Shining: Battle Arena Jul 28, 2016 $11.9951% (81%)0 .. 20,0000%00:00 (00:00)
170 Anomaly 2 May 15, 2013 $2.9951% (81%/77%)200,000 .. 500,0000.3%00:13 (00:04)
171 Graviteam Tactics: Operation Star Feb 11, 2014 $22.4951% (81%)20,000 .. 50,0000%00:00 (00:00)
172 Fate of the World Feb 28, 2011 $4.9951% (81%/70%)50,000 .. 100,0000%00:00 (00:00)
173 Weapon of Choice Sep 23, 2015 $4.99N/A (N/A)0 .. 20,0002.08%00:20 (00:06)
174 In Verbis Virtus Apr 3, 2015 $4.9951% (81%)50,000 .. 100,0001.43%00:06 (00:02)
175 Jim Power -The Lost Dimension Sep 30, 2015 $2.49N/A (N/A)0 .. 20,0000%00:00 (00:00)
176 Age of Wonders Oct 2010 $1.4951% (81%)100,000 .. 200,0000%00:00 (00:00)
177 Enemy Mind Jun 6, 2014 $1.9951% (81%)200,000 .. 500,0000.27%00:01 (00:00)
178 Bloodsports.TV Mar 30, 2015 $2.4949% (80%/69%)50,000 .. 100,0000%00:00 (00:00)
179 Monday Night Combat Jan 24, 2011 $0.7449% (80%/82%)200,000 .. 500,0000.44%00:46 (00:15)
180 rymdkapsel Jan 30, 2014 $7.9949% (80%/77%)0 .. 20,0000%00:00 (00:00)
181 Zeno Clash 2 Apr 30, 2013 $2.9949% (80%)200,000 .. 500,0001.09%00:58 (01:14)
182 Run Rabbit Run Mar 31, 2016 $2.67N/A (N/A)0 .. 20,0000%00:00 (00:00)
183 ROD: Revolt Of Defense Aug 12, 2016 $0.5949% (80%)20,000 .. 50,0005.56%00:30 (00:10)
184 Interplanetary May 12, 2015 N/A49% (80%)100,000 .. 200,0000%00:00 (00:00)
185 Gun Metal Jan 16, 2014 $1.0149% (80%)200,000 .. 500,0000.19%01:34 (00:31)
186 Perimeter Apr 3, 2014 $0.9949% (80%/77%)20,000 .. 50,0000%00:00 (00:00)
187 Fantasy Wars Aug 6, 2010 $1.2449% (80%/67%)50,000 .. 100,0000%00:00 (00:00)
188 Anomaly Warzone Earth Mobile Campaign Nov 6, 2013 $0.9949% (80%)100,000 .. 200,0000%00:00 (00:00)
189 Age of Gladiators Feb 25, 2016 $2.9949% (80%)20,000 .. 50,0000%00:00 (00:00)
190 Trigger Runners Mar 3, 2016 $1.99N/A (N/A)0 .. 20,0000%00:00 (00:00)
191 Cultures - 8th Wonder of the World Mar 26, 2015 $0.9949% (80%)50,000 .. 100,0000%00:00 (00:00)
192 Dominions 3: The Awakening Sep 10, 2013 $4.9949% (80%/82%)0 .. 20,0000%00:00 (00:00)
193 Hail to the King: Deathbat Oct 30, 2014 $5.9949% (80%)0 .. 20,0000%00:00 (00:00)
194 Conquest of Elysium 3 Oct 24, 2012 $2.4949% (80%)20,000 .. 50,0000%00:00 (00:00)
195 Ninjahtic Jul 6, 2015 $0.7949% (80%)0 .. 20,0000%00:00 (00:00)
196 Making History: The Calm & the Storm Mar 13, 2007 $0.7449% (80%/70%)50,000 .. 100,0000%00:00 (00:00)
197 Demolition Inc. Sep 19, 2011 $5.9949% (80%)50,000 .. 100,0000%00:00 (00:00)
198 Legends of Callasia Jun 10, 2016 Free49% (80%)20,000 .. 50,0000%00:00 (00:00)
199 7,62 High Calibre Apr 30, 2014 $1.2449% (80%)50,000 .. 100,0000%00:00 (00:00)
200 Supreme Ruler 2020 Gold Jun 17, 2008 $1.9949% (80%/65%)50,000 .. 100,0000%00:00 (00:00)
201 Gatling Gears Aug 30, 2011 $9.9949% (80%)20,000 .. 50,0000%00:00 (00:00)
202 TASTEE: Lethal Tactics May 10, 2016 $3.7446% (79%)0 .. 20,0001.37%01:38 (00:32)
203 Caster Mar 19, 2009 $1.9946% (79%)200,000 .. 500,0000.26%01:21 (00:27)
204 Advent Rising Aug 9, 2005 $3.9946% (79%/70%)20,000 .. 50,0001.16%00:08 (00:02)
205 Protoshift Jan 15, 2016 $0.99N/A (N/A)0 .. 20,0000%00:00 (00:00)
206 David. Feb 16, 2015 $0.5946% (79%)50,000 .. 100,0000.69%01:26 (00:28)
207 Fortified Feb 3, 2016 $2.9946% (79%)500,000 .. 1,000,00049.66%04:19 (04:52)
208 Star Wolves 3: Civil War Mar 2, 2010 $1.2446% (79%)100,000 .. 200,0000%00:00 (00:00)
209 Zombie Party Jun 10, 2016 $1.9946% (79%)100,000 .. 200,0002.17%03:10 (01:03)
210 Envoy Mar 17, 2016 $0.49N/A (N/A)50,000 .. 100,0000.42%00:44 (00:14)
211 Blue Effect VR Sep 29, 2016 $7.4946% (79%)0 .. 20,0000%00:00 (00:00)
212 Tiki Man Jun 5, 2015 $0.546% (79%)20,000 .. 50,0001.48%00:46 (00:30)
213 Battle Mages: Sign of Darkness Jul 24, 2014 $0.4946% (79%)20,000 .. 50,0000%00:00 (00:00)
214 Defense Zone 3 Ultra HD Dec 14, 2016 $2.3946% (79%)0 .. 20,0000%00:00 (00:00)
215 Nuclear Dawn Sep 26, 2011 $1.7946% (79%/71%)200,000 .. 500,0000.57%02:54 (01:25)
216 Vietnam ‘65 Mar 5, 2015 $4.8946% (79%/81%)0 .. 20,0000%00:00 (00:00)
217 Ironcast Mar 26, 2015 $7.4946% (79%/75%)20,000 .. 50,0000%00:00 (00:00)
218 Battlezone Gold Edition May 11, 2017 $17.4946% (79%)0 .. 20,0000%00:00 (00:00)
219 Locoland May 28, 2015 $0.49N/A (N/A)0 .. 20,0000%00:00 (00:00)
220 Klang Sep 22, 2016 $3.7446% (79%/71%)0 .. 20,0000%00:00 (00:00)
221 TRON RUN/r Feb 16, 2016 $5.9946% (79%)0 .. 20,0006.67%00:10 (00:03)
222 PAC-MAN and the Ghostly Adventures Oct 29, 2013 $4.9944% (78%)0 .. 20,0000%00:00 (00:00)
223 Strike Suit Zero: Director's Cut Apr 8, 2014 $3.9944% (78%)20,000 .. 50,0000%00:00 (00:00)
224 Pharaonic Apr 28, 2016 $3.7444% (78%)0 .. 20,0000%00:00 (00:00)
225 Starscape Mar 27, 2003 $1.9944% (78%)20,000 .. 50,0000%00:00 (00:00)
226 Mold on Pizza Sep 25, 2015 $5.9944% (78%)0 .. 20,0000%00:00 (00:00)
227 King of Dragon Pass Jul 28, 2015 $3.5944% (78%)20,000 .. 50,0000%00:00 (00:00)
228 Dead Rising 2: Off the Record Oct 11, 2011 $5.9944% (78%/66%)200,000 .. 500,0000.27%00:35 (00:11)
229 The Legend of Dark Witch Dec 1, 2015 $2.4944% (78%)20,000 .. 50,0000%00:00 (00:00)
230 Warhammer 40,000: Armageddon Nov 26, 2014 $9.5944% (78%/68%)20,000 .. 50,00010%21:40 (14:26)
231 Mysterium: A Psychic Clue Game Jan 12, 2017 $9.9944% (78%)50,000 .. 100,0000%00:00 (00:00)
232 Zombie Killtime Aug 4, 2015 $1.99N/A (N/A)0 .. 20,0000%00:00 (00:00)
233 Umihara Kawase Shun: Steam Edition Nov 24, 2015 $5.99N/A (N/A)0 .. 20,0000%00:00 (00:00)
234 Aeon Command Jul 3, 2014 $0.7444% (78%)20,000 .. 50,0000%00:00 (00:00)
235 Making History II: The War of the World Jun 22, 2010 $7.4944% (78%/38%)20,000 .. 50,0002.22%05:04 (01:41)
236 Star Realms Mar 8, 2016 Free44% (78%)100,000 .. 200,0001.67%00:10 (00:03)
237 Vector Strain Dec 9, 2015 $1.49N/A (N/A)20,000 .. 50,0000%00:00 (00:00)
238 Tank Destroyer Mar 9, 2017 $0.544% (78%)20,000 .. 50,0000%00:00 (00:00)
239 Starchaser: Priestess of the Night Sky Jul 24, 2015 $3.29N/A (N/A)0 .. 20,0000%00:00 (00:00)
240 Olympia Rising Jul 23, 2015 $4.99N/A (N/A)0 .. 20,0000%00:00 (00:00)
241 The Political Machine 2016 Feb 4, 2016 $4.9943% (77%)50,000 .. 100,0001.12%00:53 (00:17)
242 A.R.E.S. Extinction Agenda EX Oct 3, 2014 $1.9943% (77%)0 .. 20,0000%00:00 (00:00)
243 A Blind Legend Apr 7, 2016 $3.4943% (77%)0 .. 20,0000%00:00 (00:00)
244 Heroes of Might & Magic V: Hammers of Fate Nov 14, 2006 $2.4943% (77%/66%)200,000 .. 500,0000%00:00 (00:00)
245 Sky Gamblers: Storm Raiders Jan 7, 2015 $3.3943% (77%)0 .. 20,0000%00:00 (00:00)
246 Bet On Soldier Dec 5, 2014 $1.9943% (77%)100,000 .. 200,0000%00:00 (00:00)
247 Dangerous Waters Feb 7, 2006 $2.9943% (77%/82%)50,000 .. 100,0000%00:00 (00:00)
248 Curse of the Crescent Isle DX Aug 21, 2015 $1.5443% (77%)0 .. 20,0000%00:00 (00:00)
249 McDROID Sep 5, 2014 $9.9943% (77%)0 .. 20,0000%00:00 (00:00)
250 Rocket Knight May 11, 2010 $14.9941% (76%/63%)0 .. 20,0000%00:00 (00:00)
251 Painkiller Hell & Damnation Oct 31, 2012 $4.9941% (76%/64%)500,000 .. 1,000,0000.79%01:45 (01:44)
252 Rocketbirds 2 Evolution Jan 26, 2017 $9.9941% (76%)0 .. 20,0000%00:00 (00:00)
253 Spirits of Xanadu Mar 26, 2015 $0.9941% (76%)20,000 .. 50,0001.49%04:16 (01:25)
254 Corgi Warlock Dec 3, 2015 $0.4941% (76%)20,000 .. 50,0000%00:00 (00:00)
255 BloodRayne Sep 9, 2003 $2.9941% (76%/65%)50,000 .. 100,0000%00:00 (00:00)
256 Velocity 2X Aug 19, 2015 $4.99N/A (N/A)50,000 .. 100,0000%00:00 (00:00)
257 Victory At Sea Aug 8, 2014 $4.9941% (76%)20,000 .. 50,0000%00:00 (00:00)
258 Riddled Corpses Jun 2, 2015 $1.9941% (76%)20,000 .. 50,0003.9%49:44 (49:12)
259 Fist Puncher Jun 21, 2013 $0.9941% (76%/73%)20,000 .. 50,0000%00:00 (00:00)
260 Z Jul 4, 2014 $0.6941% (76%)100,000 .. 200,0002.65%04:27 (04:57)
261 Chaser Aug 22, 2003 $1.2441% (76%/66%)100,000 .. 200,0000%00:00 (00:00)
262 Heroes of Arca Feb 16, 2017 Free41% (76%)0 .. 20,0000%00:00 (00:00)
263 Cashtronauts Aug 31, 2016 $0.5N/A (N/A)0 .. 20,0000%00:00 (00:00)
264 Extravaganza Rising Jul 21, 2016 N/AN/A (N/A)20,000 .. 50,0000%00:00 (00:00)
265 Star Hammer: The Vanguard Prophecy Jun 4, 2015 $4.9941% (76%/69%)0 .. 20,0000%00:00 (00:00)
266 Livelock Aug 30, 2016 $2.4941% (76%/73%)20,000 .. 50,0003.28%01:03 (00:41)
267 Deadlings: Rotten Edition Nov 11, 2014 $3.9941% (76%)50,000 .. 100,0000.76%00:08 (00:02)
268 Pick a Hero Jun 9, 2016 $0.79N/A (N/A)0 .. 20,0000%00:00 (00:00)
269 Platformines Mar 28, 2014 $2.9939% (75%/67%)100,000 .. 200,0000%00:00 (00:00)
270 Smell Of Death Jul 4, 2016 $9.99N/A (N/A)0 .. 20,0000%00:00 (00:00)
271 Zoo Empire Sep 3, 2015 $1.74N/A (N/A/59%)0 .. 20,0000%00:00 (00:00)
272 The Superfluous May 19, 2017 $1.24N/A (N/A)0 .. 20,0000%00:00 (00:00)
273 Perimeter: Emperor's Testament May 22, 2014 $0.99N/A (N/A/72%)20,000 .. 50,0000%00:00 (00:00)
274 Onechanbara Z2: Chaos Jun 2, 2016 $19.9939% (75%)0 .. 20,0000%00:00 (00:00)
275 Monster Monpiece Mar 14, 2017 $3.9939% (75%)0 .. 20,0004.88%04:07 (02:44)
276 WARSHIFT Oct 12, 2016 $6.4939% (75%)20,000 .. 50,0000%00:00 (00:00)
277 Master Reboot Oct 29, 2013 $4.4939% (75%/59%)50,000 .. 100,0000%00:00 (00:00)
278 Civil War II Jul 3, 2014 $14.7939% (75%)0 .. 20,0000%00:00 (00:00)
279 AirMech Command Mar 8, 2017 $6.5939% (75%)0 .. 20,0000%00:00 (00:00)
280 CivCity: Rome Jul 24, 2006 $2.4939% (75%/67%)50,000 .. 100,0000%00:00 (00:00)
281 BossConstructor Oct 24, 2016 $7.4939% (75%)0 .. 20,0000%00:00 (00:00)
282 GEARGUNS Tank offensive Sep 20, 2016 $1.5139% (75%)20,000 .. 50,0000%00:00 (00:00)
283 Hunting Unlimited 2008 Sep 1, 2007 $3.49N/A (N/A)20,000 .. 50,0000%00:00 (00:00)
284 Albino Lullaby: Episode 1 Sep 14, 2015 $9.9939% (75%)20,000 .. 50,0000%00:00 (00:00)
285 Othello Mar 19, 2015 $2.49N/A (N/A)0 .. 20,0000%00:00 (00:00)
286 FIVE: Champions of Canaan Sep 27, 2016 $0.9939% (75%)0 .. 20,0000%00:00 (00:00)
287 Distant Worlds: Universe May 23, 2014 $19.7937% (74%/81%)50,000 .. 100,0000%00:00 (00:00)
288 Banzai Escape Feb 29, 2016 $5.9937% (74%)0 .. 20,0000%00:00 (00:00)
289 LEGO Indiana Jones 2: The Adventure Continues Feb 18, 2010 $6.7937% (74%/66%)20,000 .. 50,0002.38%05:49 (01:56)
290 Vampire of the Sands Jul 17, 2015 $0.4937% (74%)20,000 .. 50,0001.39%02:14 (00:44)
291 Making History: The Great War Jan 29, 2015 $14.9937% (74%)20,000 .. 50,0003.7%04:45 (01:35)
292 Phoning Home Feb 7, 2017 $4.5937% (74%/61%)20,000 .. 50,0001.52%00:01 (00:00)
293 Battle Time Sep 29, 2016 $0.4937% (74%)50,000 .. 100,0000%00:00 (00:00)
294 FEIST Jul 23, 2015 $3.9937% (74%)20,000 .. 50,0000%00:00 (00:00)
295 TableTop Soccer Apr 22, 2016 $0.9937% (74%)0 .. 20,0000%00:00 (00:00)
296 Viktor Jun 13, 2014 $1.1937% (74%)20,000 .. 50,0000%00:00 (00:00)
297 Bubsy Two-Fur Dec 17, 2015 $1.9937% (74%)0 .. 20,0000%00:00 (00:00)
298 Codex of Victory Mar 16, 2017 $3.7437% (74%)0 .. 20,0000%00:00 (00:00)
299 Divinity: Dragon Commander Aug 6, 2013 $3.9937% (74%)200,000 .. 500,0000%00:00 (00:00)
300 Sid Meier’s Ace Patrol Aug 27, 2013 $1.2437% (74%)500,000 .. 1,000,0000.27%03:17 (01:05)
301 Ubersoldier II Mar 25, 2014 $1.4937% (74%/62%)100,000 .. 200,0000%00:00 (00:00)
302 The Aquatic Adventure of the Last Human Jan 19, 2016 $1.9935% (73%/76%)0 .. 20,0000%00:00 (00:00)
303 Retrovirus Jan 31, 2013 $2.4935% (73%/70%)20,000 .. 50,0000%00:00 (00:00)
304 Cross of the Dutchman Sep 10, 2015 $3.1435% (73%/59%)20,000 .. 50,0001.64%00:40 (00:13)
305 Supreme Ruler Ultimate Oct 17, 2014 $7.9935% (73%)20,000 .. 50,0000%00:00 (00:00)
306 Death by Game Show Jan 22, 2016 $4.99N/A (N/A)20,000 .. 50,0001.25%01:23 (00:27)
307 VRZ: Torment Jun 9, 2016 $4.9935% (73%)0 .. 20,0000%00:00 (00:00)
308 Rex Rocket Aug 5, 2014 $4.9935% (73%)20,000 .. 50,0000%00:00 (00:00)
309 Cuban Missile Crisis Mar 25, 2015 $1.2433% (72%)20,000 .. 50,0000%00:00 (00:00)
310 Hot Tin Roof: The Cat That Wore A Fedora Feb 20, 2015 $7.4933% (72%/66%)100,000 .. 200,0000%00:00 (00:00)
311 Airship Dragoon Aug 26, 2014 $9.99N/A (N/A)0 .. 20,0000%00:00 (00:00)
312 Warp Mar 21, 2012 $2.4933% (72%)20,000 .. 50,0000%00:00 (00:00)
313 Battle Fleet 2 Nov 20, 2014 $5.2433% (72%)20,000 .. 50,0000%00:00 (00:00)
314 Pongo May 11, 2015 $0.4933% (72%)50,000 .. 100,0000.88%00:03 (00:01)
315 Tom Clancy's EndWar Feb 25, 2009 $3.3933% (72%/68%)50,000 .. 100,0000%00:00 (00:00)
316 Deadnaut Dec 8, 2014 $4.9933% (72%)0 .. 20,0000%00:00 (00:00)
317 Civil War: Battle of Petersburg Feb 8, 2017 $0.4933% (72%)0 .. 20,0000%00:00 (00:00)
318 Cast of the Seven Godsends - Redux Jul 20, 2015 $1.9933% (72%)20,000 .. 50,0000%00:00 (00:00)
319 Lux Delux May 1, 2015 $3.0933% (72%)20,000 .. 50,0001.82%01:30 (00:30)
320 Rise & Shine Jan 13, 2017 $7.4933% (72%)20,000 .. 50,0000%00:00 (00:00)
321 King Arthur - The Role-playing Wargame Nov 24, 2009 $2.4933% (72%)200,000 .. 500,0000%00:00 (00:00)
322 Auro: A Monster-Bumping Adventure Apr 13, 2016 $4.89N/A (N/A)0 .. 20,0000%00:00 (00:00)
323 Wyv and Keep: The Temple of the Lost Idol Aug 8, 2014 $1.49N/A (N/A)20,000 .. 50,0001.67%03:18 (01:06)
324 Gold Rush! Anniversary Nov 7, 2014 $2.99N/A (N/A)100,000 .. 200,0000.67%01:55 (01:16)
325 Heaven Forest NIGHTS Mar 13, 2017 $0.9933% (72%)100,000 .. 200,0000.68%00:34 (00:33)
326 Fatal Fight Jun 10, 2016 $2.99N/A (N/A)0 .. 20,0000%00:00 (00:00)
327 There Came an Echo Feb 24, 2015 $5.9933% (72%/58%)20,000 .. 50,0000%00:00 (00:00)
328 Panzer Tactics HD May 22, 2014 $2.4933% (72%/69%)20,000 .. 50,0000%00:00 (00:00)
329 Smithy Jun 3, 2016 $0.51N/A (N/A)50,000 .. 100,0000%00:00 (00:00)
330 Lost Planet: Extreme Condition Jun 26, 2007 $2.9933% (72%/66%)200,000 .. 500,0000%00:00 (00:00)
331 rooMaze Mar 3, 2017 $0.7933% (72%)50,000 .. 100,0000%00:00 (00:00)
332 Zombie Camp Jul 31, 2016 $1.99N/A (N/A)0 .. 20,0000%00:00 (00:00)
333 The Last Federation Apr 18, 2014 $4.9932% (71%/72%)50,000 .. 100,0000%00:00 (00:00)
334 Space Colony: Steam Edition Apr 30, 2015 $2.9932% (71%/74%)20,000 .. 50,0001.96%03:12 (01:04)
335 A.R.E.S.: Extinction Agenda Jan 20, 2011 $0.9932% (71%/68%)100,000 .. 200,0000.77%04:04 (01:21)
336 Disney Planes Oct 6, 2014 $5.99N/A (N/A)0 .. 20,0000%00:00 (00:00)
337 Elliot Quest Nov 10, 2014 $9.9932% (71%)20,000 .. 50,0000%00:00 (00:00)
338 Little King's Story Aug 5, 2016 $4.9932% (71%/62%)0 .. 20,0000%00:00 (00:00)
339 Elven Legacy Apr 7, 2009 $1.2432% (71%/71%)50,000 .. 100,0000%00:00 (00:00)
340 REDCON Apr 22, 2016 $5.9932% (71%)0 .. 20,0000%00:00 (00:00)
341 Revolution Under Siege Gold Jul 2, 2015 $6.2432% (71%)0 .. 20,0000%00:00 (00:00)
342 Wildlife Park 2 - Crazy Zoo Jul 17, 2014 $2.79N/A (N/A)0 .. 20,0000%00:00 (00:00)
343 Alea Jacta Est Nov 4, 2014 $9.74N/A (N/A)20,000 .. 50,0000%00:00 (00:00)
344 Jagged Alliance 2 - Wildfire Mar 8, 2004 $1.3930% (70%)200,000 .. 500,0000.7%05:13 (06:32)
345 Pigmentone Jul 8, 2016 $0.49N/A (N/A)0 .. 20,0000%00:00 (00:00)
346 BitMaster Oct 12, 2016 $0.8930% (70%)200,000 .. 500,0000.17%00:02 (00:00)
347 Warrior Kings Apr 24, 2014 $1.49N/A (N/A/73%)20,000 .. 50,0000%00:00 (00:00)
348 Sol 0: Mars Colonization Jan 15, 2016 $3.9929% (69%)20,000 .. 50,0000%00:00 (00:00)
349 The Nightmare Cooperative Jul 16, 2014 $1.24N/A (N/A)50,000 .. 100,0000%00:00 (00:00)
350 Incandescent Jun 30, 2015 $0.4929% (69%)20,000 .. 50,0000%00:00 (00:00)
351 Brigade E5: New Jagged Union Apr 30, 2014 $0.99N/A (N/A/41%)0 .. 20,0000%00:00 (00:00)
352 1775: Rebellion Sep 29, 2016 $24.99N/A (N/A)0 .. 20,0000%00:00 (00:00)
353 UnSummoning: the Spectral Horde Dec 21, 2015 $3.99N/A (N/A)0 .. 20,0000%00:00 (00:00)
354 YAIBA: NINJA GAIDEN Z Mar 21, 2014 $5.9929% (69%/49%)20,000 .. 50,0000%00:00 (00:00)
355 Quick Slick Deadly Sep 21, 2015 $0.49N/A (N/A)20,000 .. 50,0001.1%02:03 (00:41)
356 Spud's Quest Jul 31, 2014 $1.59N/A (N/A)0 .. 20,00020%05:32 (01:50)
357 Collapse Apr 11, 2014 $1.9929% (69%)50,000 .. 100,0001.54%00:01 (00:00)
358 FIVE: Guardians of David Nov 24, 2015 $2.4929% (69%/66%)20,000 .. 50,0000%00:00 (00:00)
359 Guns n Zombies Oct 30, 2014 $0.7929% (69%)100,000 .. 200,0001.96%01:18 (01:07)
360 Strategy & Tactics: Wargame Collection Apr 22, 2016 $2.4929% (69%)20,000 .. 50,0001.85%03:17 (02:11)
361 RISK: Factions Mar 8, 2011 $2.4929% (69%/77%)50,000 .. 100,0005.88%00:44 (00:29)
362 The Hive Aug 25, 2016 $4.9927% (68%)20,000 .. 50,0000%00:00 (00:00)
363 Toy Odyssey: The Lost and Found Sep 20, 2016 $7.4927% (68%/66%)50,000 .. 100,0001.73%02:29 (01:57)
364 Toren May 11, 2015 $2.4927% (68%/57%)50,000 .. 100,0000%00:00 (00:00)
365 Warhammer 40,000: Armageddon - Da Orks Aug 18, 2016 $11.79N/A (N/A)0 .. 20,0000%00:00 (00:00)
366 Theatre of War 2: Africa 1943 Apr 24, 2009 $1.2427% (68%/63%)100,000 .. 200,0000%00:00 (00:00)
367 Zombie City Defense 2 Aug 19, 2016 $2.7927% (68%)0 .. 20,0000%00:00 (00:00)
368 ManaCollect Apr 17, 2015 $1.74N/A (N/A)0 .. 20,0003.45%05:20 (01:46)
369 Fair Strike Apr 23, 2015 $0.51N/A (N/A/56%)0 .. 20,0000%00:00 (00:00)
370 Survivor Squad: Gauntlets Nov 16, 2015 $0.9927% (68%)20,000 .. 50,0000%00:00 (00:00)
371 Stonerid Aug 15, 2014 $0.4927% (68%)20,000 .. 50,0000.96%00:30 (00:10)
372 Space Food Truck Mar 25, 2016 $2.4927% (68%)0 .. 20,0000%00:00 (00:00)
373 Nomad Fleet Apr 19, 2016 $0.9926% (67%)20,000 .. 50,0000%00:00 (00:00)
374 Bedlam Oct 13, 2015 $1.2926% (67%/54%)100,000 .. 200,0000.46%02:01 (00:40)
375 Chainsaw Warrior Oct 7, 2013 $1.2426% (67%)100,000 .. 200,0000%00:00 (00:00)
376 7th Legion Oct 23, 2014 $1.74N/A (N/A)20,000 .. 50,0000%00:00 (00:00)
377 Zafehouse: Diaries Sep 6, 2013 $0.9926% (67%)50,000 .. 100,0000%00:00 (00:00)
378 Mad Combat Marines Jul 13, 2016 $0.4926% (67%)20,000 .. 50,0000%00:00 (00:00)
379 Kill The Plumber Dec 31, 2015 $4.9926% (67%)0 .. 20,0000%00:00 (00:00)
380 Scourge: Outbreak Apr 2, 2014 $7.9924% (66%)100,000 .. 200,0000%00:00 (00:00)
381 Sengoku Sep 15, 2011 $2.4924% (66%/70%)100,000 .. 200,0000%00:00 (00:00)
382 The Living Dungeon Nov 2, 2015 $4.4124% (66%)0 .. 20,0000%00:00 (00:00)
383 March of the Eagles Feb 18, 2013 $4.9924% (66%/71%)50,000 .. 100,0000%00:00 (00:00)
384 1849 May 8, 2014 $5.9924% (66%)20,000 .. 50,0000%00:00 (00:00)
385 Royal Defense Nov 10, 2014 $0.4924% (66%)50,000 .. 100,0000.47%02:54 (00:58)
386 Sky To Fly: Faster Than Wind Mar 25, 2016 $2.99N/A (N/A)0 .. 20,0000%00:00 (00:00)
387 Platypus II Aug 15, 2014 $0.6924% (66%)200,000 .. 500,0000.39%02:21 (01:33)
388 Commander Cool 2 Dec 17, 2015 $0.86N/A (N/A)50,000 .. 100,0002.56%00:20 (00:11)
389 Men of War: Condemned Heroes Apr 12, 2012 $1.9924% (66%/57%)100,000 .. 200,0000%00:00 (00:00)
390 Spirit of War Mar 12, 2015 $9.99N/A (N/A)20,000 .. 50,0001.96%04:49 (01:36)
391 Frozen Synapse Prime Nov 14, 2014 $2.4923% (65%/83%)100,000 .. 200,0000%00:00 (00:00)
392 Hunters Of The Dead Sep 4, 2014 $0.7423% (65%)20,000 .. 50,0000%00:00 (00:00)
393 Assassin’s Creed Chronicles: India Jan 12, 2016 $3.3923% (65%)20,000 .. 50,0002.38%01:59 (00:39)
394 Malebolgia May 6, 2015 $2.5923% (65%)0 .. 20,0000%00:00 (00:00)
395 Ground Breakers Jun 15, 2016 $2.49N/A (N/A)0 .. 20,0000%00:00 (00:00)
396 Theatre of War 2: Kursk 1943 Mar 9, 2010 $1.2423% (65%)50,000 .. 100,0000%00:00 (00:00)
397 Devil's Dare 悪魔の挑戦 Oct 21, 2014 $12.9923% (65%)20,000 .. 50,0000%00:00 (00:00)
398 Marauder Apr 4, 2014 $0.9923% (65%)50,000 .. 100,0000%00:00 (00:00)
399 Zombie Tycoon 2: Brainhov's Revenge Dec 9, 2013 $1.2423% (65%)50,000 .. 100,0000%00:00 (00:00)
400 8-Bit Commando Jun 2, 2014 $1.79N/A (N/A)50,000 .. 100,0000%00:00 (00:00)
401 Infinity Runner Jul 14, 2014 $2.7923% (65%/56%)0 .. 20,0000%00:00 (00:00)
402 Jagged Alliance: Crossfire Aug 24, 2012 $2.9922% (64%/63%)100,000 .. 200,0000%00:00 (00:00)
403 Warlock 2: The Exiled Apr 10, 2014 $4.9922% (64%/73%)50,000 .. 100,0000%00:00 (00:00)
404 Zoo Rampage Jul 9, 2014 $3.9922% (64%)0 .. 20,0000%00:00 (00:00)
405 Disney Pirates of the Caribbean: At Worlds End Oct 6, 2014 $5.99N/A (N/A)0 .. 20,0000%00:00 (00:00)
406 Kaiju-A-GoGo Apr 23, 2015 $2.4922% (64%)20,000 .. 50,0001.85%01:49 (00:36)
407 Urban Pirate Jun 17, 2016 $1.74N/A (N/A)0 .. 20,0000%00:00 (00:00)
408 Beasts Battle Jun 15, 2016 $1.59N/A (N/A)0 .. 20,0000%00:00 (00:00)
409 Battle Worlds: Kronos Nov 4, 2013 $4.9922% (64%/71%)20,000 .. 50,0000%00:00 (00:00)
410 A Game of Dwarves Oct 23, 2012 $2.4922% (64%/60%)50,000 .. 100,0000%00:00 (00:00)
411 Rise: Battle Lines Nov 17, 2015 $0.4922% (64%)0 .. 20,0000%00:00 (00:00)
412 SPACECOM Sep 17, 2014 $1.9922% (64%/68%)100,000 .. 200,0000.83%03:18 (02:11)
413 Desert Ashes Nov 10, 2014 $4.99N/A (N/A)20,000 .. 50,0000%00:00 (00:00)
414 Revenge of Roger Rouge Apr 22, 2016 $0.74N/A (N/A)20,000 .. 50,0001.17%03:01 (01:14)
415 The Seven Years War (1756-1763) Oct 30, 2015 $6.9922% (64%)0 .. 20,0000%00:00 (00:00)
416 Double Dragon IV Jan 30, 2017 $3.4922% (64%/50%)0 .. 20,0000%00:00 (00:00)
417 Link Apr 22, 2016 $4.99N/A (N/A)0 .. 20,0000%00:00 (00:00)
418 Pixel Boy and the Ever Expanding Dungeon May 30, 2014 $0.9921% (63%)20,000 .. 50,0000%00:00 (00:00)
419 War, the Game Jan 12, 2015 $6.9921% (63%/65%)20,000 .. 50,0000%00:00 (00:00)
420 Will Fight for Food: Super Actual Sellout: Game of the Hour Apr 22, 2015 $1.19N/A (N/A)0 .. 20,0002.08%03:55 (01:18)
421 Crazy Forest Jul 6, 2016 $0.49N/A (N/A)100,000 .. 200,0000.88%02:24 (01:04)
422 Supreme Ruler: Cold War Jul 29, 2011 $1.9920% (62%/63%)20,000 .. 50,0000%00:00 (00:00)
423 Disney Epic Mickey 2: The Power of Two Oct 6, 2014 $9.9920% (62%)20,000 .. 50,0000%00:00 (00:00)
424 Freight Tycoon Inc. Apr 3, 2014 $1.2420% (62%)20,000 .. 50,0000%00:00 (00:00)
425 4089: Ghost Within Jan 9, 2015 $1.7920% (62%)0 .. 20,0000%00:00 (00:00)
426 Port Royale 2 Apr 30, 2004 $0.9920% (62%/75%)50,000 .. 100,0000%00:00 (00:00)
427 Flashback Oct 1, 2013 $3.3920% (62%)20,000 .. 50,0005.88%06:51 (02:17)
428 Bombshell Jan 29, 2016 $34.9920% (62%)0 .. 20,0000%00:00 (00:00)
429 Goblin Defenders: Steel‘n’ Wood Nov 23, 2015 $1.04N/A (N/A)20,000 .. 50,0001.32%03:26 (01:08)
430 Sorcerer King: Rivals Sep 22, 2016 $6.7420% (62%)0 .. 20,0000%00:00 (00:00)
431 Battleplan: American Civil War Jul 4, 2014 $1.4920% (62%/66%)100,000 .. 200,0000.25%00:01 (00:00)
432 Hyperspace Pinball Sep 30, 2015 $2.99N/A (N/A)0 .. 20,0000%00:00 (00:00)
433 My Super Tower 2 Jan 27, 2017 $0.49N/A (N/A)0 .. 20,0000%00:00 (00:00)
434 The Few Jun 18, 2014 $7.9920% (62%)20,000 .. 50,0000%00:00 (00:00)
435 E.T. Armies Mar 3, 2016 $2.2419% (61%/54%)0 .. 20,0000%00:00 (00:00)
436 Gnumz: Masters of Defense Dec 21, 2015 $0.49N/A (N/A)20,000 .. 50,0003.45%02:10 (03:29)
437 To End All Wars Aug 29, 2014 $11.9919% (61%/71%)0 .. 20,0000%00:00 (00:00)
438 Purgatory Jun 22, 2016 $0.4919% (61%)200,000 .. 500,0000.3%00:59 (01:17)
439 Men of War: Vietnam Sep 8, 2011 $1.9919% (61%/68%)100,000 .. 200,0000.82%00:12 (00:04)
440 Legions of Steel Jul 16, 2015 $4.99N/A (N/A/64%)0 .. 20,0000%00:00 (00:00)
441 Spice Road Apr 24, 2014 $3.99N/A (N/A)0 .. 20,0000%00:00 (00:00)
442 Call of Duty: Black Ops - Mac Edition Sep 27, 2012 $19.9919% (61%)50,000 .. 100,0000%00:00 (00:00)
443 Stay Dead Evolution Feb 4, 2015 $1.01N/A (N/A)20,000 .. 50,0001.35%03:46 (01:15)
444 Overruled! Sep 15, 2015 $3.24N/A (N/A)20,000 .. 50,0000%00:00 (00:00)
445 Woolfe - The Red Hood Diaries Mar 17, 2015 $3.3917% (60%/55%)50,000 .. 100,0002.41%00:42 (00:28)
446 Patrician IV - Steam Special Edition Sep 17, 2010 $3.7417% (60%/66%)100,000 .. 200,0001.38%01:52 (01:11)
447 Quarantine Feb 9, 2017 $2.9917% (60%)0 .. 20,0000%00:00 (00:00)
448 Disciples III - Renaissance Steam Special Edition Jul 16, 2010 $3.7417% (60%/56%)100,000 .. 200,0000%00:00 (00:00)
449 Skyshine's BEDLAM Sep 16, 2015 $4.9917% (60%/67%)20,000 .. 50,0000%00:00 (00:00)
450 Grim Seventh Jan 20, 2017 FreeN/A (N/A)0 .. 20,0000%00:00 (00:00)
451 Close Combat - Panthers in the Fog May 14, 2015 $9.9917% (60%)0 .. 20,0000%00:00 (00:00)
452 Cemetery Warrior 3 Feb 3, 2017 $0.4917% (60%)50,000 .. 100,0000%00:00 (00:00)
453 Code of Princess Apr 14, 2016 $5.9917% (60%/53%)0 .. 20,0000%00:00 (00:00)
454 Super Helmets on Fire DX Ultra Edition Plus Alpha Feb 15, 2016 $0.99N/A (N/A)0 .. 20,0002.63%00:30 (00:10)
455 Life in Bunker Feb 25, 2016 $7.9916% (59%)0 .. 20,0000%00:00 (00:00)
456 Ninjahtic Mind Tricks Jul 16, 2015 $0.79N/A (N/A)0 .. 20,0000%00:00 (00:00)
457 NOBUNAGA'S AMBITION: Sphere of Influence - Ascension / 信長の野望・創造 戦国立志伝 Mar 23, 2016 $23.9916% (59%)50,000 .. 100,00025%07:25 (02:28)
458 Woodle Tree 2: Worlds Sep 16, 2016 $1.5916% (59%)20,000 .. 50,0002.42%05:12 (03:31)
459 Check vs Mate Aug 16, 2012 $2.9916% (59%/69%)0 .. 20,0000%00:00 (00:00)
460 Prospekt Feb 18, 2016 $2.4916% (59%)20,000 .. 50,0005.88%00:20 (00:06)
461 Antisquad May 22, 2014 $5.9916% (59%)50,000 .. 100,0000%00:00 (00:00)
462 VR Journey Dec 15, 2016 $0.516% (59%)20,000 .. 50,0000%00:00 (00:00)
463 Armada 2526 Gold Edition Feb 28, 2013 $3.5916% (59%/66%)20,000 .. 50,0000%00:00 (00:00)
464 Merchants of Kaidan Nov 10, 2014 $1.4916% (59%)100,000 .. 200,0003.38%05:19 (07:47)
465 7 Grand Steps: What Ancients Begat Jun 7, 2013 $11.9916% (59%)100,000 .. 200,0000%00:00 (00:00)
466 Prophour23 Oct 22, 2014 $2.4915% (58%)0 .. 20,0000%00:00 (00:00)
467 Wanderlust Adventures Aug 10, 2015 $1.4915% (58%)20,000 .. 50,0000%00:00 (00:00)
468 Sir! I'd Like To Report A Bug! Oct 19, 2015 $0.79N/A (N/A)0 .. 20,0000%00:00 (00:00)
469 Ceres Oct 16, 2015 $3.9915% (58%/74%)0 .. 20,0000%00:00 (00:00)
470 DreamBreak Jul 21, 2016 $2.3715% (58%/46%)0 .. 20,0000%00:00 (00:00)
471 Dawn of Andromeda May 4, 2017 $10.1915% (58%/70%)0 .. 20,0000%00:00 (00:00)
472 Adventure World Aug 2, 2016 $4.99N/A (N/A)0 .. 20,0000%00:00 (00:00)
473 Colonial Conquest Jul 28, 2015 $3.9915% (58%)0 .. 20,0005.88%00:44 (00:14)
474 Assault on Arnhem Mar 11, 2016 $9.99N/A (N/A)0 .. 20,0000%00:00 (00:00)
475 Heavy Fire: Afghanistan Aug 15, 2014 $0.9814% (57%)20,000 .. 50,0000%00:00 (00:00)
476 Defend Your Crypt Jul 21, 2016 $1.49N/A (N/A)0 .. 20,0004%02:30 (00:50)
477 Unearthed: Trail of Ibn Battuta - Episode 1 - Gold Edition Jan 3, 2014 $1.2414% (57%)20,000 .. 50,0000%00:00 (00:00)
478 Gates of Horizon Dec 18, 2014 $1.9914% (57%)0 .. 20,0000%00:00 (00:00)
479 Rise of Venice Sep 27, 2013 $4.9914% (57%/66%)50,000 .. 100,0000%00:00 (00:00)
480 Horizon Feb 6, 2014 $5.9914% (56%)50,000 .. 100,0000%00:00 (00:00)
481 Delve Deeper Sep 24, 2010 $4.9914% (56%)50,000 .. 100,0000%00:00 (00:00)
482 Abalone Apr 23, 2014 $4.99N/A (N/A)0 .. 20,0000%00:00 (00:00)
483 reconquest Dec 16, 2016 $4.7914% (56%)0 .. 20,0000%00:00 (00:00)
484 Pain Train Jan 11, 2017 $0.4913% (55%)50,000 .. 100,0005.17%02:45 (02:03)
485 BC Kings Sep 15, 2008 $0.9913% (55%)20,000 .. 50,0000%00:00 (00:00)
486 Wickland Feb 6, 2015 $0.4912% (54%)50,000 .. 100,0000.6%02:27 (00:49)
487 Tic-Toc-Tower Sep 28, 2015 $0.5N/A (N/A)0 .. 20,0000%00:00 (00:00)
488 Crusaders: Thy Kingdom Come Oct 8, 2009 $2.49N/A (N/A)20,000 .. 50,0000%00:00 (00:00)
489 Aegis Oct 6, 2016 $0.92N/A (N/A)0 .. 20,0000%00:00 (00:00)
490 RESCUE 2: Everyday Heroes Jun 3, 2015 $3.9912% (53%)20,000 .. 50,0000%00:00 (00:00)
491 Story Of the Survivor Feb 16, 2016 $2.49N/A (N/A)50,000 .. 100,0000%00:00 (00:00)
492 Smugglers 5 Apr 11, 2014 $3.9912% (53%)20,000 .. 50,0000%00:00 (00:00)
493 Nightside Aug 6, 2015 $0.9912% (53%)20,000 .. 50,0000%00:00 (00:00)
494 Defence to death May 11, 2017 $0.57N/A (N/A)50,000 .. 100,0000%00:00 (00:00)
495 Armada 2526 Jun 10, 2010 $2.69N/A (N/A/66%)0 .. 20,0000%00:00 (00:00)
496 Urja Jan 9, 2015 $9.9912% (53%)20,000 .. 50,0001.32%00:19 (00:06)
497 Meridian: New World Sep 26, 2014 $1.3911% (52%/43%)50,000 .. 100,0000%00:00 (00:00)
498 The Campaign Series: Fall Weiss May 30, 2014 $2.24N/A (N/A)20,000 .. 50,0001.49%05:03 (01:41)
499 Royal Bounty HD Aug 10, 2015 $2.9911% (52%)0 .. 20,0000%00:00 (00:00)
500 Scapeland Mar 31, 2016 $0.51N/A (N/A)0 .. 20,0000%00:00 (00:00)
501 The Stalin Subway Sep 19, 2014 $0.5111% (52%)20,000 .. 50,0000%00:00 (00:00)
502 Castle Werewolf 3D Feb 7, 2017 $0.510% (51%)50,000 .. 100,0000%00:00 (00:00)
503 Guncraft Aug 9, 2013 $2.2410% (51%/73%)100,000 .. 200,0000%00:00 (00:00)
504 Biodrone Battle Jul 16, 2015 $0.4910% (51%)100,000 .. 200,0000%00:00 (00:00)
505 Dusty Revenge:Co-Op Edition Feb 17, 2014 $4.9410% (51%)50,000 .. 100,0000%00:00 (00:00)
506 MDK2 HD Jul 30, 2012 $7.4910% (51%/73%)0 .. 20,0000%00:00 (00:00)
507 MinosMaze - The Minotaur's Labyrinth May 1, 2017 $0.49N/A (N/A)0 .. 20,0000%00:00 (00:00)
508 No Pineapple Left Behind Feb 18, 2016 $1.74N/A (N/A/59%)0 .. 20,0000%00:00 (00:00)
509 Odd||Even Apr 6, 2016 $0.49N/A (N/A)20,000 .. 50,0000%00:00 (00:00)
510 Marvel: Ultimate Alliance 2 Jul 26, 2016 $15.9910% (50%)0 .. 20,0000%00:00 (00:00)
511 Albedo: Eyes from Outer Space Apr 10, 2015 $1.4910% (50%/66%)20,000 .. 50,0000%00:00 (00:00)
512 PeriAreion Feb 19, 2015 $5.99N/A (N/A)0 .. 20,0000%00:00 (00:00)
513 Weather Lord: The Successor's Path May 7, 2015 $0.49N/A (N/A)0 .. 20,0000%00:00 (00:00)
514 Kidnapped Aug 4, 2015 $0.779% (49%)100,000 .. 200,0000.34%01:17 (00:25)
515 Meridian: Squad 22 Aug 11, 2016 $2.99N/A (N/A)0 .. 20,0000%00:00 (00:00)
516 Z Steel Soldiers Aug 1, 2014 $1.299% (48%)50,000 .. 100,0001.06%02:51 (01:54)
517 Rubber and Lead Sep 4, 2015 $4.99N/A (N/A)20,000 .. 50,0000.9%02:03 (00:41)
518 Aggression: Europe Under Fire Apr 9, 2014 $0.999% (48%)50,000 .. 100,0000%00:00 (00:00)
519 Synonymy Mar 5, 2015 $0.49N/A (N/A)0 .. 20,0000%00:00 (00:00)
520 Hero Generations Apr 10, 2015 $0.898% (47%)0 .. 20,0000%00:00 (00:00)
521 Crossfire: Dungeons May 21, 2015 $0.518% (47%)0 .. 20,0000%00:00 (00:00)
522 Disposable Heroes Mar 22, 2016 $0.49N/A (N/A)0 .. 20,0006.52%01:54 (01:53)
523 Island Defense Jul 23, 2015 $1.99N/A (N/A)50,000 .. 100,0000%00:00 (00:00)
524 Star Traders: 4X Empires Dec 16, 2014 $4.99N/A (N/A)0 .. 20,0000%00:00 (00:00)
525 Blasting Agent: Ultimate Edition Aug 17, 2016 $2.99N/A (N/A)0 .. 20,0000%00:00 (00:00)
526 ALONE IN SPACE Feb 22, 2016 $9.998% (47%)0 .. 20,0000%00:00 (00:00)
527 Megamagic: Wizards of the Neon Age Apr 20, 2016 $2.99N/A (N/A/67%)0 .. 20,0002.78%01:31 (00:50)
528 The Stalin Subway: Red Veil Oct 24, 2014 $0.58% (46%)50,000 .. 100,0000%00:00 (00:00)
529 Redemption: Saints And Sinners Nov 18, 2016 $0.498% (46%)50,000 .. 100,0001.05%08:09 (08:08)
530 Magic Quest May 6, 2016 $1.99N/A (N/A)50,000 .. 100,0000%00:00 (00:00)
531 World War 2: Time of Wrath Jun 6, 2014 $0.997% (45%)20,000 .. 50,0000%00:00 (00:00)
532 Commander: Conquest of the Americas Jul 30, 2010 $9.997% (45%/68%)50,000 .. 100,0000%00:00 (00:00)
533 Battle Chess: Game of Kings Dec 11, 2015 $29.997% (45%)0 .. 20,0000%00:00 (00:00)
534 HitBox Jan 30, 2017 Free7% (45%)0 .. 20,0000%00:00 (00:00)
535 The Bluecoats: North vs South Feb 2, 2015 $0.997% (45%)50,000 .. 100,0000%00:00 (00:00)
536 Hell Nov 13, 2014 $4.79N/A (N/A)0 .. 20,0000%00:00 (00:00)
537 Impire Feb 14, 2013 $4.997% (45%/45%)100,000 .. 200,0000%00:00 (00:00)
538 Carrier Command: Gaea Mission Sep 28, 2012 $6.597% (45%/60%)200,000 .. 500,0000.78%00:09 (00:03)
539 Chronostorm: Siberian Border Nov 20, 2015 $0.49N/A (N/A)0 .. 20,0000%00:00 (00:00)
540 DUNGEONS - Steam Special Edition Feb 10, 2011 $1.997% (44%/65%)200,000 .. 500,0000%00:00 (00:00)
541 Nux Aug 15, 2014 $0.69N/A (N/A)100,000 .. 200,0000.74%01:40 (02:06)
542 Skyward Collapse May 23, 2013 $1.247% (44%/64%)100,000 .. 200,0000%00:00 (00:00)
543 Pride of Nations Jun 8, 2011 $4.797% (44%/70%)20,000 .. 50,0000%00:00 (00:00)
544 Vendetta - Curse of Raven's Cry Nov 20, 2015 $9.896% (43%)0 .. 20,00012.5%07:08 (02:31)
545 Sword of the Stars II: Enhanced Edition Nov 30, 2012 $4.996% (42%/65%)100,000 .. 200,0000%00:00 (00:00)
546 Burstfire Sep 24, 2015 N/A6% (42%)50,000 .. 100,0000%00:00 (00:00)
547 Samudai Feb 9, 2015 $2.99N/A (N/A)20,000 .. 50,0000%00:00 (00:00)
548 The Entente Gold Jun 16, 2014 $0.496% (42%)50,000 .. 100,0000%00:00 (00:00)
549 Rulers of Nations Jul 16, 2014 $9.996% (41%/63%)0 .. 20,0000%00:00 (00:00)
550 Lost in Paradise Aug 20, 2015 $0.98N/A (N/A)20,000 .. 50,0000%00:00 (00:00)
551 Hydraulic Empire Jul 31, 2015 $1.99N/A (N/A)0 .. 20,0000%00:00 (00:00)
552 Infection: Humanity's Last Gasp May 26, 2016 $9.99N/A (N/A)0 .. 20,0000%00:00 (00:00)
553 Pain Train 2 Mar 16, 2017 $0.695% (40%)0 .. 20,00013.33%03:11 (02:48)
554 Devils & Demons Oct 6, 2015 $2.49N/A (N/A)20,000 .. 50,0000%00:00 (00:00)
555 Strategic War in Europe Mar 21, 2014 $2.245% (40%)20,000 .. 50,0002.44%06:44 (04:29)
556 R.I.P.D.: The Game Jul 16, 2013 $1.995% (40%)20,000 .. 50,0000%00:00 (00:00)
557 Dead But Alive! Southern England Oct 2, 2015 $5.99N/A (N/A)0 .. 20,0005.13%03:01 (02:00)
558 Heavy Fire: Shattered Spear Oct 23, 2015 $0.95N/A (N/A)0 .. 20,0000%00:00 (00:00)
559 The Kings' Crusade Oct 8, 2010 $2.495% (40%/71%)50,000 .. 100,0000%00:00 (00:00)
560 Wave of Darkness Nov 5, 2015 $8.99N/A (N/A)0 .. 20,0000%00:00 (00:00)
561 Dark Matter Oct 17, 2013 $1.795% (39%)0 .. 20,0000%00:00 (00:00)
562 Control Craft 2 Feb 15, 2016 $0.5N/A (N/A)0 .. 20,0002.22%02:17 (00:45)
563 Dungeons - The Dark Lord Sep 27, 2011 $4.995% (39%/72%)100,000 .. 200,0000%00:00 (00:00)
564 Zombie Apocalypse: Escape The Undead City Jun 17, 2016 $0.5N/A (N/A)0 .. 20,0000%00:00 (00:00)
565 Gratuitous Space Battles 2 Apr 16, 2015 $2.494% (38%)20,000 .. 50,0000%00:00 (00:00)
566 Mechs & Mercs: Black Talons Jan 9, 2015 $1.994% (38%)0 .. 20,0000%00:00 (00:00)
567 Risk Jun 10, 2013 $2.494% (38%)20,000 .. 50,0000%00:00 (00:00)
568 Tiamat X May 29, 2015 $0.49N/A (N/A)50,000 .. 100,0000%00:00 (00:00)
569 Stellar Impact Apr 12, 2012 $9.994% (37%/74%)50,000 .. 100,0002.41%05:03 (01:41)
570 Knight Adventure Oct 15, 2015 $0.99N/A (N/A)50,000 .. 100,0008.25%05:13 (04:42)
571 Kick-Ass 2 Aug 15, 2014 $4.99N/A (N/A)0 .. 20,0000%00:00 (00:00)
572 Blue Sheep Mar 31, 2016 $1.99N/A (N/A)0 .. 20,0000%00:00 (00:00)
573 Urban Empire Jan 20, 2017 $7.493% (35%/62%)50,000 .. 100,0000%00:00 (00:00)
574 Shadows of War Jan 2, 2015 $0.593% (35%)20,000 .. 50,0000.89%00:01 (00:00)
575 Into the Void Dec 4, 2015 $4.99N/A (N/A)20,000 .. 50,0000%00:00 (00:00)
576 Fallen: A2P Protocol Aug 14, 2015 $9.993% (34%)20,000 .. 50,00012.5%00:04 (00:01)
577 Arma Tactics Oct 1, 2013 $1.793% (34%/47%)200,000 .. 500,0000.58%01:18 (00:51)
578 CTU: Counter Terrorism Unit Apr 22, 2016 $2.99N/A (N/A)0 .. 20,0000%00:00 (00:00)
579 Ranger of the jungle Jul 18, 2016 $1.19N/A (N/A)0 .. 20,0000%00:00 (00:00)
580 Jagged Alliance Flashback Oct 21, 2014 $3.993% (33%)20,000 .. 50,0000%00:00 (00:00)
581 Sim Junta Aug 18, 2015 $0.493% (33%)0 .. 20,0000%00:00 (00:00)
582 Disciples III - Resurrection Oct 11, 2011 $3.743% (32%/63%)100,000 .. 200,0000%00:00 (00:00)
583 Psichodelya Aug 8, 2014 $0.99N/A (N/A)100,000 .. 200,0000%00:00 (00:00)
584 Ground Pounders Jul 15, 2014 $2.49N/A (N/A)0 .. 20,0000%00:00 (00:00)
585 Evopollution Apr 23, 2014 $4.993% (31%)0 .. 20,0000%00:00 (00:00)
586 Zombie Zoeds May 20, 2015 $2.993% (31%)200,000 .. 500,0000.67%00:03 (00:03)
587 A Game of Thrones - Genesis Sep 29, 2011 $9.993% (31%)100,000 .. 200,0000%00:00 (00:00)
588 Robotex Nov 19, 2014 $0.493% (31%)100,000 .. 200,0000.4%02:03 (00:41)
589 Ku: Shroud of the Morrigan Mar 17, 2014 $4.993% (31%)20,000 .. 50,0000%00:00 (00:00)
590 Defenders of Time Nov 4, 2014 N/AN/A (N/A/55%)0 .. 20,0000%00:00 (00:00)
591 Power of Defense Aug 4, 2010 $9.99N/A (N/A)0 .. 20,0000%00:00 (00:00)
592 Tank Operations: European Campaign Nov 22, 2013 $4.492% (30%)20,000 .. 50,0000%00:00 (00:00)
593 Solar Shifter EX Sep 11, 2015 $1.99N/A (N/A)20,000 .. 50,0002.56%02:20 (00:46)
594 Gridberd Sep 7, 2015 $1.74N/A (N/A)200,000 .. 500,0000%00:00 (00:00)
595 Hard Truck Apocalypse: Arcade / Ex Machina: Arcade Mar 14, 2014 $0.492% (26%)20,000 .. 50,0000%00:00 (00:00)
596 One Star Apr 17, 2017 $0.5N/A (N/A)50,000 .. 100,0001.02%01:57 (01:32)
597 Zombies on a Plane Mar 25, 2016 $1.24N/A (N/A)0 .. 20,0000%00:00 (00:00)
598 APOX Jan 20, 2011 $14.991% (23%/48%)20,000 .. 50,0000%00:00 (00:00)
599 Elite vs. Freedom May 31, 2016 $0.49N/A (N/A)0 .. 20,0000%00:00 (00:00)
600 Lords of the Black Sun Sep 12, 2014 $4.491% (21%)0 .. 20,0007.14%02:01 (00:40)
601 The Asskickers-Steam Edition Feb 6, 2015 $1.99N/A (N/A)0 .. 20,0000%00:00 (00:00)
602 Gemini Wars Nov 2, 2012 $2.691% (19%/53%)20,000 .. 50,0000%00:00 (00:00)
603 Human Extinction Simulator Jan 21, 2015 $4.99N/A (N/A)0 .. 20,0000%00:00 (00:00)
604 Star Project Aug 4, 2016 $0.49N/A (N/A)100,000 .. 200,0003.6%04:31 (04:40)
605 Tryst Sep 14, 2012 $14.99N/A (N/A/50%)0 .. 20,0000%00:00 (00:00)
606 Prison Tycoon 3: Lockdown Aug 1, 2007 $3.491% (16%)20,000 .. 50,0000%00:00 (00:00)
607 Once Bitten, Twice Dead! Jul 7, 2015 $4.99N/A (N/A)20,000 .. 50,0000%00:00 (00:00)
608 Citadels Jul 25, 2013 $3.741% (12%/20%)20,000 .. 50,0000%00:00 (00:00)
609 Bloodbath Jun 16, 2014 $4.49N/A (N/A)0 .. 20,0000%00:00 (00:00)
610 Magnetic By Nature Nov 10, 2014 $9.99N/A (N/A)20,000 .. 50,0000%00:00 (00:00)

Owners of this game also own:

Access restricted.

This feature is only available to users with special access rights. Sorry.

If you want to proceed, you need to register or log in first and then back Steam Spy on Patreon. Look for Indie or Pro pledge.

Don't forget to use the same email as on Steam Spy!

Playtime distribution:

Access restricted.

This feature is only available to users with special access rights. Sorry.

If you want to proceed, you need to register or log in first and then back Steam Spy on Patreon. Look for Indie or Pro pledge.

Don't forget to use the same email as on Steam Spy!

Playtime (2 weeks):

Access restricted.

This feature is only available to users with special access rights. Sorry.

If you want to proceed, you need to register or log in first and then back Steam Spy on Patreon. Look for Indie or Pro pledge.

Don't forget to use the same email as on Steam Spy!

User reviews:

Login required.

Please register or log in to see this information.